TimeMST,TemperatureF,Dew PointF,Humidity,Sea Level PressureIn,VisibilityMPH,Wind Direction,Wind SpeedMPH,Gust SpeedMPH,PrecipitationIn,Events,Conditions,WindDirDegrees,DateUTC
12:53 AM,25.0,-9999,N/A,29.95,10.0,West,13.8,-,N/A,,Clear,280,2014-01-13 07:53:00
1:53 AM,25.0,-9999,N/A,30.01,10.0,West,12.7,-,N/A,,Clear,280,2014-01-13 08:53:00
2:53 AM,21.9,-9999,N/A,30.04,10.0,WNW,13.8,-,N/A,,Clear,290,2014-01-13 09:53:00
3:53 AM,25.0,-9999,N/A,30.03,10.0,West,17.3,-,N/A,,Clear,270,2014-01-13 10:53:00
4:53 AM,25.0,-9999,N/A,30.03,10.0,West,16.1,-,N/A,,Clear,270,2014-01-13 11:53:00
5:53 AM,25.0,-9999,N/A,30.02,10.0,West,15.0,-,N/A,,Clear,260,2014-01-13 12:53:00
6:53 AM,25.0,-9999,N/A,30.03,10.0,West,17.3,-,N/A,,Clear,260,2014-01-13 13:53:00
7:53 AM,28.9,-9999,N/A,30.03,10.0,WSW,17.3,-,N/A,,Clear,250,2014-01-13 14:53:00
8:53 AM,34.0,-9999,N/A,30.05,10.0,West,15.0,-,N/A,,Clear,260,2014-01-13 15:53:00
9:53 AM,41.0,9.0,27,30.05,10.0,West,15.0,-,N/A,,Clear,270,2014-01-13 16:53:00
10:53 AM,48.0,9.0,21,30.02,10.0,West,17.3,-,N/A,,Clear,270,2014-01-13 17:53:00
11:53 AM,53.1,6.1,15,29.95,10.0,West,17.3,-,N/A,,Clear,260,2014-01-13 18:53:00
12:53 PM,55.0,5.0,13,29.92,10.0,West,15.0,-,N/A,,Clear,280,2014-01-13 19:53:00
1:53 PM,55.9,6.1,14,29.90,10.0,West,11.5,-,N/A,,Clear,280,2014-01-13 20:53:00
2:53 PM,55.9,6.1,14,29.91,10.0,NW,9.2,-,N/A,,Clear,310,2014-01-13 21:53:00
2:56 PM,55.9,6.1,14,29.92,0.8,NW,8.1,-,N/A,,Haze,310,2014-01-13 21:56:00
3:06 PM,55.9,6.1,14,29.92,3.0,WNW,9.2,-,N/A,,Haze,300,2014-01-13 22:06:00
3:53 PM,55.0,8.1,15,29.91,7.0,NNW,4.6,-,N/A,,Clear,330,2014-01-13 22:53:00
4:02 PM,55.0,7.0,15,29.92,0.5,North,3.5,-,N/A,,Haze,350,2014-01-13 23:02:00
4:23 PM,54.0,9.0,17,29.92,1.8,Calm,Calm,-,N/A,,Haze,0,2014-01-13 23:23:00
4:30 PM,53.1,10.0,18,29.92,8.0,NNE,3.5,-,N/A,,Partly Cloudy,30,2014-01-13 23:30:00
4:53 PM,50.0,10.0,20,29.93,9.0,Calm,Calm,-,N/A,,Clear,0,2014-01-13 23:53:00
4:59 PM,51.1,9.0,18,29.93,2.5,South,3.5,-,N/A,,Haze,190,2014-01-13 23:59:00
5:14 PM,48.9,10.0,21,29.93,5.0,SSW,8.1,-,N/A,,Haze,200,2014-01-14 00:14:00
5:53 PM,42.1,12.0,29,29.96,10.0,SSW,6.9,-,N/A,,Clear,210,2014-01-14 00:53:00
6:53 PM,37.9,12.9,36,29.98,10.0,SSW,10.4,-,N/A,,Clear,210,2014-01-14 01:53:00
7:53 PM,34.0,12.9,42,29.99,10.0,WSW,4.6,-,N/A,,Clear,250,2014-01-14 02:53:00
8:53 PM,33.1,12.9,43,29.99,10.0,West,16.1,-,N/A,,Clear,270,2014-01-14 03:53:00
9:53 PM,33.1,12.0,42,29.98,10.0,SW,4.6,-,N/A,,Clear,230,2014-01-14 04:53:00
10:53 PM,30.0,12.9,49,29.97,10.0,Calm,Calm,-,N/A,,Clear,0,2014-01-14 05:53:00
11:53 PM,28.0,12.9,53,29.96,10.0,NW,5.8,-,N/A,,Clear,320,2014-01-14 06:53:00